Starlink 6327

operational
NORAD ID: 56522 Int'l Des: 2023-065 Owner: SPXS Country: US Constellation: starlink
LEOCIRCULAR

About Starlink 6327

Description loading...

Live Position

Loading 3D Globe...

Upcoming Passes

Altitude History

Altitude vs Time

uPlot chart will show altitude changes over time

Two-Line Element Set

1 56522U 23065V 25259.76745108 .00000826 00000-0 76208-4 0 9990
2 56522 43.0026 75.2697 0001138 270.6828 89.3884 15.02535008130462
Epoch: Sep 16, 2025 • Age: 28 hours

Current Status

Altitude 560.1 km
Velocity 7.59 km/s
Sub-Earth Point 28.76°N, 116.04°W
Launch Date May 14, 2023
Age 2.3 years
Type internet

Technical Details

Classification Payload
Mass 305.00 kg
Dry Mass 290.00 kg
Total Mass 305.00 kg
Length 0.20 m
Diameter 2.80 m
Span 9.00 m
Shape Box + pan
Manufacturer SPXS
Bus Type Starlink
Phase Status In Orbit
Owner/State SPXS/US

Large Constellations

Loading constellations...